New Haven, CT

6:48 PM EDT on May 26, 2017 (GMT -0400)
Tweed-New Haven

Weather History for KHVN - December, 2012

Change the Weather History Date:

Wednesday, December 19, 2012

  Actual Average Record
Temperature  
Mean Temperature 45 °F -  
Max Temperature 51 °F 40 °F 55 °F (1990)
Min Temperature 39 °F 28 °F 9 °F (1991)
Degree Days  
Heating Degree Days 20    
Moisture  
Dew Point 29 °F    
Average Humidity 54    
Maximum Humidity 71    
Minimum Humidity 41    
Precipitation  
Precipitation 0.00 in - - ()
Sea Level Pressure  
Sea Level Pressure 29.78 in    
Wind  
Wind Speed 8 mph (NW)    
Max Wind Speed 17 mph    
Max Gust Speed 32 mph    
Visibility 10 miles    
Events      
Averages and records for this station are not official NWS values.
T = Trace of Precipitation, MM = Missing Value Source: NWS Daily Summary

Daily Weather History Graph

Daily Weather History Graph

Search for Another Location

Airport or City:

Trip Planner

Search our weather history database for the weather conditions in past years. The results will help you decide how hot, cold, wet, or windy it might be!

Date:

Astronomy

Dec. 19, 2012 Rise Set
Actual Time 7:13 AM EST 4:24 PM EST
Civil Twilight 6:41 AM EST 4:56 PM EST
Nautical Twilight 6:06 AM EST 5:31 PM EST
Astronomical Twilight 5:33 AM EST 6:04 PM EST
Moon 11:16 AM EST (12/19) 11:54 PM EST (12/19)
Length of Visible Light 10h 14m
Length of Day
9h 11m
Waxing Crescent, 45% of the Moon is Illuminated
Dec 19
Waxing Crescent
Dec 20
First Quarter
Dec 28
Full
Jan 4
Last Quarter
Jan 11
New

Hourly Weather History & Observations

Time (EST) Temp. Windchill Dew Point Humidity Pressure Visibility Wind Dir Wind Speed Gust Speed Precip Events Conditions
12:53 AM 45.0 °F 41.8 °F 36.0 °F 71% 29.55 in 10.0 mi WNW 5.8 mph - N/A   Clear
1:53 AM 44.1 °F 40.1 °F 35.1 °F 71% 29.58 in 10.0 mi WNW 6.9 mph - N/A   Clear
2:53 AM 45.0 °F 40.6 °F 33.1 °F 63% 29.59 in 10.0 mi WNW 8.1 mph 16.1 mph N/A   Partly Cloudy
3:53 AM 45.0 °F 41.2 °F 30.9 °F 58% 29.60 in 10.0 mi WNW 6.9 mph - N/A   Clear
4:53 AM 44.1 °F 39.0 °F 30.0 °F 58% 29.60 in 10.0 mi WNW 9.2 mph - N/A   Clear
5:53 AM 44.1 °F 40.8 °F 28.9 °F 55% 29.62 in 10.0 mi Variable 5.8 mph - N/A   Mostly Cloudy
6:53 AM 42.1 °F 40.2 °F 28.9 °F 60% 29.65 in 10.0 mi WNW 3.5 mph - N/A   Mostly Cloudy
7:53 AM 43.0 °F 40.3 °F 30.0 °F 60% 29.68 in 10.0 mi WSW 4.6 mph - N/A   Mostly Cloudy
8:53 AM 43.0 °F 38.2 °F 30.0 °F 60% 29.70 in 10.0 mi West 8.1 mph - N/A   Mostly Cloudy
9:53 AM 46.0 °F 41.4 °F 28.9 °F 51% 29.71 in 10.0 mi WNW 9.2 mph 20.7 mph N/A   Scattered Clouds
10:53 AM 46.9 °F - 28.9 °F 50% 29.71 in 10.0 mi NW 11.5 mph 20.7 mph N/A   Scattered Clouds
11:53 AM 48.9 °F - 28.9 °F 46% 29.72 in 10.0 mi WNW 13.8 mph 24.2 mph N/A   Scattered Clouds
12:53 PM 50.0 °F - 27.0 °F 41% 29.73 in 10.0 mi NW 17.3 mph 26.5 mph N/A   Scattered Clouds
1:53 PM 51.1 °F - 28.0 °F 41% 29.75 in 10.0 mi NNW 17.3 mph 32.2 mph N/A   Scattered Clouds
2:53 PM 50.0 °F - 28.0 °F 43% 29.78 in 10.0 mi North 15.0 mph 26.5 mph N/A   Scattered Clouds
3:53 PM 48.0 °F - 28.0 °F 46% 29.82 in 10.0 mi NNW 15.0 mph 23.0 mph N/A   Partly Cloudy
4:53 PM 46.0 °F 39.9 °F 27.0 °F 47% 29.87 in 10.0 mi NW 13.8 mph 21.9 mph N/A   Partly Cloudy
5:53 PM 45.0 °F 40.1 °F 26.1 °F 48% 29.92 in 10.0 mi NNW 9.2 mph 19.6 mph N/A   Partly Cloudy
6:53 PM 43.0 °F 38.8 °F 26.1 °F 51% 29.96 in 10.0 mi NNW 6.9 mph - N/A   Clear
7:53 PM 43.0 °F 38.8 °F 25.0 °F 49% 30.01 in 10.0 mi NNW 6.9 mph - N/A   Clear
8:53 PM 42.1 °F 37.7 °F 25.0 °F 51% 30.04 in 10.0 mi NNW 6.9 mph - N/A   Clear
9:53 PM 41.0 °F 34.7 °F 25.0 °F 53% 30.06 in 10.0 mi NNW 10.4 mph - N/A   Clear
10:53 PM 39.9 °F 35.1 °F 25.0 °F 55% 30.07 in 10.0 mi NW 6.9 mph - N/A   Clear
11:53 PM 39.9 °F 35.1 °F 26.1 °F 58% 30.09 in 10.0 mi NW 6.9 mph - N/A   Clear